Weather History for Colorado Springs, CO

Change the Weather History Date:

Friday, March 29, 2013

  Actual Average Record
Temperature  
Mean Temperature 50 °F 42 °F  
Max Temperature 67 °F 55 °F 75 °F (1967)
Min Temperature 33 °F 29 °F 3 °F (1975)
Degree Days  
Heating Degree Days 15 23  
Month to date heating degree days 786 760  
Since 1 July heating degree days 5130 5323  
Cooling Degree Days 0 0  
Month to date cooling degree days 0 0  
Year to date cooling degree days 0 0  
Moisture  
Dew Point 25 °F    
Average Humidity 46    
Maximum Humidity 75    
Minimum Humidity 16    
Precipitation  
Precipitation T in 0.03 in 0.69 in (1985)
Month to date precipitation 0.18 0.93  
Year to date precipitation 1.26 1.59  
Snow  
Snow 0.00 in 0.30 in 9.10 in (1985)
Month to date snowfall 4.1 7.6  
Since 1 July snowfall 24.1 31.6  
Snow Depth 0.00 in    
Sea Level Pressure  
Sea Level Pressure 30.05 in    
Wind  
Wind Speed 8 mph (NNE)    
Max Wind Speed 25 mph    
Max Gust Speed 29 mph    
Visibility 10 miles    
Events      
T = Trace of Precipitation, MM = Missing Value Source: NWS Daily Summary

Daily Weather History Graph

Daily Weather History Graph

Search for Another Location

Airport:

Trip Planner

Search our weather history database for the weather conditions in past years. The results will help you decide how hot, cold, wet, or windy it might be!

Date:

Astronomy

Mar. 29, 2013 Rise Set
Actual Time 6:47 AM MDT 7:19 PM MDT
Civil Twilight 6:20 AM MDT 7:46 PM MDT
Nautical Twilight 5:49 AM MDT 8:18 PM MDT
Astronomical Twilight 5:17 AM MDT 8:50 PM MDT
Moon 10:20 PM MDT (3/29) 8:00 AM MDT (3/29)
Length of Visible Light 13h 25m
Length of Day
12h 32m
Waning Gibbous, 93% of the Moon is Illuminated
Mar 29
Waning Gibbous
Apr 2
Last Quarter
Apr 10
New
Apr 18
First Quarter
Apr 25
Full

Hourly Weather History & Observations

Time (MDT) Temp. Windchill Dew Point Humidity Pressure Visibility Wind Dir Wind Speed Gust Speed Precip Events Conditions
12:54 AM 39.9 °F - 26.1 °F 58% 30.08 in 10.0 mi Calm Calm - N/A   Clear
1:54 AM 36.0 °F 31.1 °F 26.1 °F 67% 30.08 in 10.0 mi NE 5.8 mph - N/A   Clear
2:54 AM 37.0 °F 34.5 °F 27.0 °F 67% 30.08 in 10.0 mi NE 3.5 mph - N/A   Clear
3:54 AM 35.1 °F 30.1 °F 27.0 °F 72% 30.09 in 10.0 mi North 5.8 mph - N/A   Clear
4:54 AM 36.0 °F 31.1 °F 27.0 °F 70% 30.08 in 10.0 mi NNE 5.8 mph - N/A   Clear
5:54 AM 35.1 °F 30.1 °F 28.0 °F 76% 30.09 in 10.0 mi NNE 5.8 mph - N/A   Clear
6:54 AM 37.9 °F 33.5 °F 28.0 °F 68% 30.08 in 10.0 mi NNE 5.8 mph - N/A   Clear
7:54 AM 43.0 °F - 28.0 °F 56% 30.09 in 10.0 mi Calm Calm - N/A   Clear
8:54 AM 48.0 °F - 30.0 °F 50% 30.07 in 10.0 mi Calm Calm - N/A   Clear
9:54 AM 54.0 °F - 27.0 °F 35% 30.05 in 10.0 mi SE 3.5 mph - N/A   Clear
10:54 AM 61.0 °F - 18.0 °F 19% 30.04 in 10.0 mi WNW 10.4 mph 18.4 mph N/A   Partly Cloudy
11:54 AM 63.0 °F - 18.0 °F 18% 30.02 in 10.0 mi West 11.5 mph 26.5 mph N/A   Scattered Clouds
12:54 PM 64.0 °F - 17.1 °F 16% 30.01 in 10.0 mi NNW 8.1 mph 25.3 mph N/A   Scattered Clouds
1:54 PM 64.0 °F - 18.0 °F 17% 30.01 in 10.0 mi NW 8.1 mph - N/A   Scattered Clouds
2:54 PM 64.9 °F - 18.0 °F 16% 29.98 in 10.0 mi NE 8.1 mph 17.3 mph N/A   Mostly Cloudy
3:54 PM 64.0 °F - 19.0 °F 18% 29.99 in 10.0 mi ENE 10.4 mph - N/A   Mostly Cloudy
4:54 PM 63.0 °F - 19.0 °F 18% 29.98 in 10.0 mi ESE 9.2 mph - N/A   Mostly Cloudy
5:54 PM 60.1 °F - 23.0 °F 24% 30.02 in 10.0 mi North 10.4 mph - 0.00 in   Mostly Cloudy
6:54 PM 55.9 °F - 27.0 °F 33% 30.08 in 10.0 mi North 16.1 mph - 0.00 in   Mostly Cloudy
7:54 PM 52.0 °F - 30.9 °F 45% 30.06 in 10.0 mi NE 11.5 mph - N/A   Mostly Cloudy
8:54 PM 50.0 °F - 30.9 °F 48% 30.08 in 10.0 mi NE 8.1 mph - N/A   Scattered Clouds
9:54 PM 46.0 °F 41.4 °F 30.9 °F 56% 30.08 in 10.0 mi North 9.2 mph - N/A   Scattered Clouds
10:54 PM 45.0 °F 40.6 °F 30.9 °F 58% 30.06 in 10.0 mi WSW 8.1 mph - N/A   Partly Cloudy
11:54 PM 44.1 °F 41.5 °F 30.0 °F 58% 30.04 in 10.0 mi North 4.6 mph - N/A   Clear